1513454400.83,31025,7.31,72268.3,-15.19,-47.03,-46.97,0,*65
1513454402.07,31026,7.31,72272.0,-15.21,-47.17,-47.17,0,*61
1513454403.34,31027,7.31,72270.8,-15.21,-47.17,-47.23,0,*67
1513454404.59,31028,7.31,72268.5,-15.21,-46.83,-46.75,0,*66
1513454405.84,31029,7.31,72268.8,-15.21,-46.97,-46.75,0,*62
1513454407.14,31030,7.31,72268.8,-15.21,-46.61,-46.49,0,*6C
1513454408.42,31031,7.31,72270.0,-15.21,-46.55,-46.49,0,*6A
1513454409.67,31032,7.31,72268.3,-15.23,-46.89,-46.83,0,*6C
1513454410.94,31033,7.31,72270.0,-15.23,-46.89,-46.89,0,*67
1513454412.19,31034,7.31,72268.0,-15.23,-46.89,-46.83,0,*6A
1513454413.45,31035,7.31,72268.0,-15.23,-47.03,-47.03,0,*61
1513454414.71,31036,7.31,72268.0,-15.21,-46.97,-46.83,0,*65
1513454415.97,31037,7.31,72268.5,-15.23,-47.03,-46.89,0,*60
1513454417.22,31038,7.31,72270.3,-15.23,-46.83,-46.89,0,*66
1513454418.49,31039,7.31,72270.5,-15.23,-46.89,-47.03,0,*6E
1513454419.75,31040,7.31,72266.8,-15.23,-46.89,-47.03,0,*60
1513454421.02,31041,7.31,72268.5,-15.23,-46.89,-46.89,0,*62
1513454422.27,31042,7.31,72272.0,-15.23,-46.83,-46.89,0,*6B
1513454423.52,31043,7.31,72270.5,-15.23,-46.89,-46.83,0,*6A
1513454424.76,31044,7.31,72268.5,-15.23,-46.69,-46.55,0,*68
1513454426.01,31045,7.31,72268.5,-15.23,-46.83,-46.61,0,*6A
1513454427.26,31046,7.31,72270.0,-15.23,-46.89,-46.83,0,*6F
1513454428.52,31047,7.31,72266.5,-15.23,-46.89,-47.03,0,*67
1513454429.79,31048,7.31,72268.0,-15.23,-46.89,-47.03,0,*68
1513454431.05,31049,7.31,72268.0,-15.23,-46.69,-46.61,0,*62
1513454432.3,31050,7.31,72264.8,-15.23,-46.69,-46.83,0,*66
1513454433.54,31051,7.31,72270.3,-15.23,-46.83,-46.89,0,*69
1513454434.81,31052,7.31,72268.5,-15.23,-46.89,-47.03,0,*63
1513454436.05,31053,7.31,72270.3,-15.23,-46.83,-46.89,0,*6B
1513454437.32,31054,7.31,72268.0,-15.23,-46.89,-47.03,0,*65
1513454438.56,31055,7.31,72268.5,-15.23,-46.83,-46.61,0,*6B
1513454439.81,31056,7.31,72270.8,-15.23,-46.69,-46.83,0,*60
1513454441.03,31057,7.31,72270.3,-15.23,-46.83,-46.83,0,*65
1513454442.31,31058,7.31,72270.8,-15.21,-46.55,-46.49,0,*65
1513454443.55,31059,7.31,72268.5,-15.23,-46.61,-46.55,0,*6C
1513454444.77,31060,7.31,72268.0,-15.23,-46.55,-46.35,0,*67
1513454446.02,31061,7.31,72268.5,-15.21,-46.55,-46.35,0,*64
1513454447.28,31062,7.31,72270.3,-15.23,-46.61,-46.41,0,*61
1513454448.55,31063,7.31,72268.5,-15.21,-46.61,-46.75,0,*65
1513454449.8,31064,7.31,72270.3,-15.23,-46.69,-46.55,0,*6A
1513454451.04,31065,7.31,72268.8,-15.23,-46.55,-46.41,0,*61
1513454452.3,31066,7.31,72270.0,-15.23,-46.61,-46.61,0,*67
1513454453.55,31067,7.31,72264.8,-15.21,-46.55,-46.35,0,*62
1513454454.8,31068,7.31,72268.8,-15.21,-46.55,-46.35,0,*6D
1513454456.1,31069,7.31,72268.3,-15.21,-46.49,-46.27,0,*62
1513454457.37,31070,7.31,72268.5,-15.21,-46.55,-46.49,0,*6F
1513454458.64,31071,7.31,72268.3,-15.21,-46.61,-46.55,0,*64
1513454459.92,31072,7.31,72270.0,-15.21,-46.55,-46.49,0,*6D
1513454461.19,31073,7.31,72268.5,-15.19,-46.49,-46.15,0,*63
1513454462.5,31074,7.31,72272.3,-15.21,-46.15,-46.15,0,*66
1513454463.8,31075,7.31,72270.0,-15.21,-46.49,-46.27,0,*6F
1513454465.08,31076,7.31,72270.0,-15.21,-46.35,-46.27,0,*67
1513454466.35,31077,7.31,72268.3,-15.21,-46.61,-46.55,0,*62
1513454467.6,31078,7.31,72268.3,-15.21,-46.55,-46.35,0,*6C
1513454468.85,31079,7.31,72272.3,-15.21,-46.55,-46.35,0,*6D
1513454470.09,31080,7.31,72270.3,-15.19,-46.49,-46.35,0,*6D
1513454471.39,31081,7.31,72270.0,-15.17,-46.07,-46.07,0,*69
1513454472.64,31082,7.31,72268.8,-15.19,-46.35,-46.15,0,*66
1513454473.88,31083,7.31,72272.5,-15.19,-46.49,-46.35,0,*6E
1513454475.13,31084,7.31,72270.3,-15.19,-46.49,-46.35,0,*69
1513454476.37,31085,7.31,72268.3,-15.19,-46.35,-46.27,0,*60
1513454477.66,31086,7.31,72270.8,-15.17,-46.41,-46.07,0,*6C
1513454478.96,31087,7.31,72266.5,-15.17,-46.27,-46.07,0,*6D
1513454480.24,31088,7.31,72266.3,-15.19,-46.27,-46.07,0,*6C
1513454481.51,31089,7.31,72268.8,-15.17,-46.27,-46.21,0,*67
1513454482.8,31090,7.31,72270.3,-15.17,-46.49,-46.49,0,*69
1513454484.04,31091,7.31,72268.3,-15.19,-46.61,-46.75,0,*63
1513454485.34,31092,7.31,72268.5,-15.17,-46.49,-46.27,0,*63
1513454486.62,31093,7.31,72272.3,-15.17,-46.41,-46.41,0,*6A
1513454487.89,31094,7.31,72270.8,-15.17,-46.49,-46.35,0,*66
1513454489.19,31095,7.31,72270.5,-15.17,-46.49,-46.41,0,*64
1513454490.48,31096,7.31,72268.8,-15.17,-46.27,-46.27,0,*6F
1513454491.78,31097,7.31,72270.0,-15.17,-46.49,-46.41,0,*66
1513454493.06,31098,7.31,72268.0,-15.17,-46.41,-46.27,0,*61
1513454494.33,31099,7.31,72268.3,-15.17,-46.55,-46.41,0,*65
1513454495.54,31100,7.31,72268.8,-15.15,-46.75,-46.75,0,*63
1513454496.83,31101,7.31,72268.3,-15.17,-46.41,-46.27,0,*60
1513454498.1,31102,7.31,72268.5,-15.17,-46.55,-46.49,0,*6E
1513454499.37,31103,7.31,72270.5,-15.17,-46.75,-46.49,0,*6D
1513454500.61,31104,7.31,72270.5,-15.17,-46.75,-46.75,0,*65
1513454501.82,31105,7.31,72268.3,-15.15,-46.75,-46.75,0,*66
1513454503.07,31106,7.31,72268.5,-15.15,-46.55,-46.49,0,*68
1513454504.28,31107,7.31,72268.8,-15.15,-46.75,-46.75,0,*64
1513454505.52,31108,7.31,72268.3,-15.15,-46.75,-46.69,0,*66
1513454506.78,31109,7.31,72270.8,-15.17,-46.69,-46.75,0,*65
1513454508.02,31110,7.31,72272.0,-15.17,-46.75,-46.75,0,*60
1513454509.31,31111,7.31,72272.8,-15.17,-46.69,-46.69,0,*61
1513454510.6,31112,7.31,72274.3,-15.17,-46.49,-46.41,0,*6A
1513454511.86,31113,7.31,72270.3,-15.17,-46.75,-46.89,0,*60
1513454513.16,31114,7.31,72270.3,-15.17,-46.89,-46.89,0,*64
1513454514.43,31115,7.31,72270.5,-15.17,-46.97,-46.89,0,*6A
1513454515.67,31116,7.31,72268.5,-15.17,-47.09,-46.97,0,*60
1513454516.94,31117,7.31,72268.0,-15.17,-46.89,-46.97,0,*68
1513454518.16,31118,7.31,72272.8,-15.19,-46.97,-47.17,0,*6F
1513454519.4,31119,7.31,72274.0,-15.17,-46.97,-47.09,0,*6F
1513454520.62,31120,7.31,72270.8,-15.19,-46.97,-46.83,0,*68
1513454521.86,31121,7.31,72270.0,-15.19,-47.03,-47.17,0,*69
1513454523.13,31122,7.31,72270.0,-15.17,-46.89,-46.97,0,*6E
1513454524.35,31123,7.31,72272.0,-15.19,-46.97,-46.97,0,*6E
1513454525.57,31124,7.31,72270.3,-15.19,-46.97,-46.75,0,*65
1513454526.8,31125,7.31,72272.0,-15.19,-46.97,-46.83,0,*6D
1513454528.02,31126,7.31,72272.0,-15.19,-46.97,-46.83,0,*6E
1513454529.25,31127,7.31,72268.3,-15.17,-47.17,-47.17,0,*64
1513454530.5,31128,7.31,72268.5,-15.17,-47.09,-46.97,0,*6D
1513454531.72,31129,7.31,72270.5,-15.19,-46.97,-46.75,0,*68
1513454532.94,31130,7.31,72272.5,-15.19,-46.83,-46.97,0,*69
1513454534.18,31131,7.31,72274.5,-15.19,-47.17,-47.23,0,*6A
1513454535.44,31132,7.31,72270.0,-15.19,-47.03,-47.03,0,*6E
1513454536.66,31133,7.31,72272.5,-15.19,-46.97,-46.97,0,*6F
1513454537.93,31134,7.31,72270.8,-15.17,-46.89,-46.97,0,*69
1513454539.2,31135,7.31,72270.3,-15.21,-46.97,-47.03,0,*6E
1513454540.45,31136,7.31,72272.8,-15.21,-46.97,-46.83,0,*64
1513454541.7,31137,7.31,72270.0,-15.21,-46.83,-46.97,0,*65
1513454542.96,31138,7.31,72270.0,-15.21,-46.83,-46.83,0,*6F
1513454544.17,31139,7.31,72270.0,-15.19,-46.75,-46.75,0,*65
1513454545.39,31140,7.31,72272.5,-15.19,-46.75,-46.83,0,*62
1513454546.6,31141,7.31,72270.0,-15.19,-46.75,-46.55,0,*68
1513454547.84,31142,7.31,72270.8,-15.19,-47.03,-46.97,0,*65
1513454549.06,31143,7.31,72270.3,-15.19,-46.83,-46.97,0,*6D
1513454550.28,31144,7.31,72270.0,-15.19,-46.97,-47.17,0,*66
1513454551.51,31145,7.31,72270.3,-15.19,-47.03,-47.17,0,*6B
1513454552.77,31146,7.31,72272.3,-15.21,-46.83,-46.83,0,*66
1513454554.02,31147,7.31,72272.3,-15.21,-46.83,-46.83,0,*67
1513454555.24,31148,7.31,72270.8,-15.19,-46.97,-46.97,0,*63
1513454556.53,31149,7.31,72272.3,-15.17,-46.89,-47.03,0,*6F
1513454557.83,31150,7.31,72274.5,-15.21,-47.03,-47.23,0,*63
1513454559.1,31151,7.31,72272.3,-15.21,-46.97,-47.03,0,*6C
1513454560.35,31152,7.31,72272.0,-15.21,-46.97,-47.17,0,*6A
1513454561.61,31153,7.31,72272.3,-15.23,-47.03,-46.89,0,*63
1513454562.88,31154,7.31,72270.5,-15.21,-46.97,-47.03,0,*69
1513454564.15,31155,7.31,72270.0,-15.21,-46.97,-47.03,0,*68
1513454565.42,31156,7.31,72266.5,-15.21,-47.03,-47.17,0,*62
1513454566.66,31157,7.31,72268.5,-15.23,-47.03,-47.09,0,*6E
1513454567.93,31158,7.31,72270.3,-15.21,-46.97,-47.03,0,*65
1513454569.17,31159,7.31,72274.8,-15.23,-47.09,-47.23,0,*62
1513454570.42,31160,7.31,72270.5,-15.23,-47.31,-47.45,0,*63
1513454571.64,31161,7.31,72270.3,-15.23,-47.09,-47.31,0,*6A
1513454572.91,31162,7.31,72274.0,-15.21,-46.97,-47.03,0,*6C
1513454574.15,31163,7.31,72268.5,-15.23,-47.23,-47.09,0,*6B
1513454575.39,31164,7.31,72268.8,-15.23,-47.31,-47.45,0,*67
1513454576.63,31165,7.31,72270.8,-15.23,-47.23,-47.09,0,*6D
1513454577.87,31166,7.31,72266.8,-15.23,-47.03,-47.09,0,*6C
1513454579.14,31167,7.31,72268.8,-15.23,-47.03,-47.23,0,*65
1513454580.38,31168,7.31,72268.3,-15.23,-47.09,-47.23,0,*60
1513454581.64,31169,7.31,72268.3,-15.23,-47.03,-47.03,0,*69
1513454582.9,31170,7.31,72270.5,-15.23,-47.03,-47.03,0,*61
1513454584.15,31171,7.31,72272.8,-15.25,-47.31,-47.23,0,*65
1513454585.39,31172,7.31,72268.8,-15.25,-47.09,-47.23,0,*6D
1513454586.6,31173,7.31,72274.5,-15.25,-47.09,-47.09,0,*64
1513454587.86,31174,7.31,72272.3,-15.25,-47.03,-47.03,0,*63
1513454589.1,31175,7.31,72272.3,-15.25,-46.89,-47.09,0,*6B
1513454590.35,31176,7.31,72270.3,-15.25,-47.09,-47.23,0,*69
1513454591.59,31177,7.31,72268.0,-15.25,-47.23,-47.31,0,*63
1513454592.81,31178,7.31,72274.5,-15.25,-47.31,-47.31,0,*6F
1513454594.03,31179,7.31,72270.0,-15.25,-47.31,-47.31,0,*6E
1513454595.28,31180,7.31,72268.3,-15.25,-47.09,-47.23,0,*60
1513454596.49,31181,7.31,72268.0,-15.25,-47.17,-47.31,0,*6D
1513454597.73,31182,7.31,72272.0,-15.27,-46.97,-46.97,0,*68
1513454598.99,31183,7.31,72268.5,-15.25,-46.89,-47.03,0,*68
1513454600.23,31184,7.31,72266.8,-15.27,-46.97,-46.97,0,*6E
1513454601.48,31185,7.31,72270.3,-15.25,-46.83,-46.89,0,*67
1513454602.72,31186,7.31,72274.3,-15.27,-46.97,-46.97,0,*6C
1513454603.96,31187,7.31,72270.5,-15.27,-46.97,-47.09,0,*6B
1513454605.23,31188,7.31,72268.3,-15.25,-46.89,-46.89,0,*60
1513454606.47,31189,7.31,72270.8,-15.25,-46.83,-46.61,0,*6D
1513454607.69,31190,7.31,72272.3,-15.25,-46.83,-46.83,0,*69
1513454608.93,31191,7.31,72270.8,-15.27,-46.97,-46.97,0,*6A
1513454610.2,31192,7.31,72268.3,-15.25,-46.89,-47.03,0,*68
1513454611.43,31193,7.31,72270.8,-15.25,-47.09,-47.03,0,*60
1513454612.67,31194,7.31,72270.0,-15.27,-46.97,-46.97,0,*6F
1513454613.96,31195,7.31,72272.0,-15.27,-46.69,-46.69,0,*6E
1513454615.25,31196,7.31,72270.3,-15.27,-46.89,-46.69,0,*63
1513454616.49,31197,7.31,72272.8,-15.27,-46.97,-46.97,0,*6C
1513454617.78,31198,7.31,72268.8,-15.27,-46.89,-46.69,0,*6D
1513454619.02,31199,7.31,72268.3,-15.25,-46.83,-47.03,0,*69
1513454620.31,31200,7.31,72270.3,-15.27,-46.89,-46.89,0,*61
1513454621.58,31201,7.31,72268.0,-15.25,-46.89,-46.89,0,*62
1513454622.84,31202,7.31,72270.3,-15.25,-46.89,-47.03,0,*62
1513454624.06,31203,7.31,72270.8,-15.25,-47.09,-47.09,0,*60
1513454625.27,31204,7.31,72268.3,-15.25,-47.09,-47.09,0,*67
1513454626.5,31205,7.31,72268.3,-15.27,-47.17,-47.17,0,*64
1513454627.76,31206,7.31,72272.5,-15.25,-47.03,-47.03,0,*65
1513454628.99,31207,7.31,72274.8,-15.27,-47.09,-47.09,0,*66
1513454630.26,31208,7.31,72268.3,-15.25,-46.89,-47.03,0,*68
1513454631.5,31209,7.31,72270.8,-15.27,-46.97,-46.97,0,*68
1513454632.79,31210,7.31,72270.8,-15.27,-46.89,-46.89,0,*60
1513454634.08,31211,7.31,72272.5,-15.27,-46.89,-46.89,0,*61
1513454635.32,31212,7.31,72264.5,-15.27,-46.97,-46.97,0,*62
1513454636.58,31213,7.31,72268.3,-15.27,-46.75,-46.89,0,*60
1513454637.83,31214,7.31,72268.3,-15.25,-46.89,-46.83,0,*6C
1513454639.07,31215,7.31,72270.8,-15.27,-47.09,-47.09,0,*65
1513454640.32,31216,7.31,72270.8,-15.27,-46.75,-46.69,0,*6B
1513454641.61,31217,7.31,72270.3,-15.27,-46.89,-46.69,0,*69
1513454642.85,31218,7.31,72272.8,-15.25,-46.75,-46.69,0,*67
1513454644.07,31219,7.31,72268.8,-15.25,-46.83,-46.83,0,*6B
1513454645.34,31220,7.31,72270.0,-15.27,-46.97,-46.89,0,*6C
1513454646.61,31221,7.31,72268.3,-15.25,-46.69,-46.89,0,*6E
1513454647.9,31222,7.31,72266.3,-15.27,-46.89,-46.89,0,*61
1513454649.16,31223,7.31,72268.3,-15.27,-46.97,-46.89,0,*6F
1513454650.4,31224,7.31,72266.3,-15.27,-47.09,-47.17,0,*68
1513454651.61,31225,7.31,72270.0,-15.25,-47.09,-47.09,0,*64
1513454652.85,31226,7.31,72268.3,-15.25,-47.09,-47.23,0,*6F
1513454654.12,31227,7.31,72268.8,-15.27,-47.09,-46.69,0,*63
1513454655.35,31228,7.31,72268.5,-15.27,-46.97,-46.97,0,*6B
1513454656.64,31229,7.31,72270.0,-15.27,-46.69,-46.61,0,*62
1513454657.88,31230,7.31,72270.0,-15.27,-46.97,-46.97,0,*62
1513454659.13,31231,7.31,72272.5,-15.27,-46.75,-46.89,0,*60
1513454660.37,31232,7.31,72270.8,-15.27,-46.97,-46.97,0,*60
1513454661.64,31233,7.31,72270.3,-15.27,-46.97,-46.89,0,*6E
1513454662.88,31234,7.31,72270.8,-15.27,-46.97,-46.97,0,*66
1513454664.15,31235,7.31,72268.3,-15.27,-46.97,-46.89,0,*68
1513454665.4,31236,7.31,72268.0,-15.27,-46.75,-46.89,0,*67
1513454666.7,31237,7.31,72268.5,-15.27,-46.89,-46.89,0,*65
1513454667.96,31238,7.31,72272.5,-15.27,-46.97,-46.89,0,*65
1513454669.23,31239,7.31,72268.8,-15.27,-46.97,-46.89,0,*64
1513454670.49,31240,7.31,72274.0,-15.25,-46.89,-47.03,0,*64
1513454671.72,31241,7.31,72268.3,-15.27,-47.17,-47.17,0,*64
1513454673.01,31242,7.31,72268.0,-15.27,-46.89,-46.89,0,*67
1513454674.31,31243,7.31,72270.8,-15.27,-46.89,-46.89,0,*66
1513454675.55,31244,7.31,72270.0,-15.27,-47.31,-46.97,0,*6C
1513454676.78,31245,7.31,72270.0,-15.27,-47.17,-47.09,0,*6F
1513454678.04,31246,7.31,72270.5,-15.27,-47.37,-47.31,0,*65
1513454679.27,31247,7.31,72272.0,-15.27,-47.17,-47.17,0,*62
1513454680.52,31248,7.31,72272.5,-15.29,-47.31,-47.37,0,*65
1513454681.81,31249,7.31,72270.0,-15.27,-47.37,-47.37,0,*6C
1513454683.04,31250,7.31,72266.3,-15.27,-46.97,-47.09,0,*62
1513454684.26,31251,7.31,72270.3,-15.29,-46.97,-47.17,0,*62
1513454685.48,31252,7.31,72270.3,-15.29,-47.17,-47.31,0,*6C
1513454686.69,31253,7.31,72268.0,-15.29,-47.09,-47.09,0,*69
1513454687.91,31254,7.31,72270.5,-15.29,-47.09,-46.97,0,*68
1513454689.17,31255,7.31,72274.0,-15.31,-47.03,-47.17,0,*63
1513454690.39,31256,7.31,72266.3,-15.29,-46.97,-46.97,0,*6C
1513454691.62,31257,7.31,72270.8,-15.27,-47.09,-47.09,0,*63
1513454692.83,31258,7.31,72270.8,-15.29,-47.17,-47.17,0,*62
1513454694.13,31259,7.31,72270.0,-15.31,-47.23,-47.23,0,*6A
1513454695.37,31260,7.31,72274.5,-15.31,-47.17,-46.97,0,*69
1513454696.63,31261,7.31,72270.3,-15.31,-47.03,-47.17,0,*64
1513454697.84,31262,7.31,72270.3,-15.29,-47.17,-47.17,0,*6B
1513454699.07,31263,7.31,72270.8,-15.29,-47.17,-47.03,0,*6F
1513454700.32,31264,7.31,72270.3,-15.31,-46.97,-46.75,0,*68
1513454701.53,31265,7.31,72270.0,-15.29,-47.17,-47.17,0,*6C
1513454702.74,31266,7.31,72272.5,-15.29,-47.09,-47.09,0,*6F
1513454704.03,31267,7.31,72270.0,-15.31,-47.03,-47.03,0,*67
1513454705.27,31268,7.31,72268.8,-15.27,-46.97,-47.09,0,*69
1513454706.56,31269,7.31,72272.3,-15.31,-47.03,-47.23,0,*6B
1513454707.79,31270,7.31,72270.3,-15.27,-47.09,-47.09,0,*66
1513454709.08,31271,7.31,72272.5,-15.31,-47.03,-47.03,0,*60
1513454710.34,31272,7.31,72270.0,-15.31,-47.17,-47.03,0,*66
1513454711.63,31273,7.31,72274.0,-15.31,-47.23,-47.23,0,*62
1513454712.85,31274,7.31,72268.5,-15.29,-47.09,-47.09,0,*6C
1513454714.11,31275,7.31,72274.0,-15.31,-47.17,-47.23,0,*63
1513454715.35,31276,7.31,72268.0,-15.31,-47.17,-46.97,0,*6E
1513454716.62,31277,7.31,72268.3,-15.29,-46.89,-46.69,0,*61
1513454717.91,31278,7.31,72270.8,-15.31,-47.03,-47.03,0,*69
1513454719.17,31279,7.31,72270.3,-15.31,-47.17,-47.23,0,*6F
1513454720.44,31280,7.31,72272.3,-15.31,-47.23,-47.17,0,*69
1513454721.73,31281,7.31,72274.0,-15.31,-47.23,-47.37,0,*6A
1513454722.97,31282,7.31,72272.0,-15.31,-47.17,-46.97,0,*65
1513454724.23,31283,7.31,72270.5,-15.31,-47.17,-47.23,0,*6A
1513454725.45,31284,7.31,72270.5,-15.29,-47.17,-47.09,0,*6C
1513454726.71,31285,7.31,72268.0,-15.31,-47.17,-47.03,0,*6E
1513454727.94,31286,7.31,72270.3,-15.31,-47.17,-47.17,0,*68
1513454729.15,31287,7.31,72274.0,-15.37,-47.17,-47.17,0,*6F
1513454730.44,31288,7.31,72272.8,-15.35,-47.23,-47.23,0,*62
1513454731.74,31289,7.31,72272.0,-15.35,-47.45,-47.37,0,*66
1513454733.02,31290,7.31,72268.0,-15.35,-47.03,-47.03,0,*6B
1513454734.3,31291,7.31,72272.8,-15.35,-47.03,-47.03,0,*6A
1513454735.57,31292,7.31,72268.0,-15.37,-47.23,-47.23,0,*6B
1513454736.84,31293,7.31,72270.5,-15.37,-47.23,-47.23,0,*6A
1513454738.08,31294,7.31,72270.0,-15.37,-47.31,-47.23,0,*6E
1513454739.38,31295,7.31,72272.8,-15.35,-47.37,-47.45,0,*6B
1513454740.62,31296,7.31,72272.5,-15.37,-47.23,-47.31,0,*6C
1513454741.87,31297,7.31,72274.3,-15.37,-47.31,-47.45,0,*6D
1513454743.09,31298,7.31,72270.5,-15.37,-47.51,-47.31,0,*67
1513454744.38,31299,7.31,72272.0,-15.35,-47.37,-47.37,0,*62
1513454745.66,31300,7.31,72270.3,-15.35,-47.03,-47.03,0,*63
1513454746.93,31301,7.31,72270.5,-15.35,-47.23,-47.31,0,*61
1513454748.16,31302,7.31,72268.0,-15.37,-47.23,-47.09,0,*6B
1513454749.41,31303,7.31,72270.5,-15.37,-47.45,-47.31,0,*61
1513454750.66,31304,7.31,72272.0,-15.37,-47.31,-47.23,0,*66
1513454751.93,31305,7.31,72274.8,-15.39,-47.31,-47.45,0,*69
1513454753.17,31306,7.31,72270.5,-15.39,-47.09,-47.09,0,*69
1513454754.41,31307,7.31,72272.5,-15.37,-47.09,-47.23,0,*6E
1513454755.71,31308,7.31,72270.0,-15.39,-47.45,-47.45,0,*67
1513454756.97,31309,7.31,72272.8,-15.39,-47.23,-47.31,0,*65
1513454758.25,31310,7.31,72272.8,-15.41,-47.23,-47.23,0,*61
1513454759.52,31311,7.31,72270.8,-15.39,-47.31,-47.45,0,*6C
1513454760.74,31312,7.31,72272.3,-15.41,-47.31,-47.31,0,*63
1513454761.95,31313,7.31,72272.0,-15.41,-47.17,-47.09,0,*6D
1513454763.17,31314,7.31,72268.5,-15.41,-47.17,-47.09,0,*6A
1513454764.39,31315,7.31,72270.0,-15.41,-47.31,-47.17,0,*60
1513454765.68,31316,7.31,72272.0,-15.39,-47.23,-47.23,0,*68
1513454766.91,31317,7.31,72274.0,-15.39,-47.17,-47.09,0,*66
1513454768.15,31318,7.31,72270.8,-15.39,-47.09,-47.09,0,*66
1513454769.4,31319,7.31,72272.0,-15.39,-47.09,-46.83,0,*64
1513454770.62,31320,7.31,72270.8,-15.41,-47.17,-47.31,0,*66
1513454771.83,31321,7.31,72270.3,-15.41,-47.17,-47.09,0,*6C
1513454773.09,31322,7.31,72270.5,-15.39,-47.09,-47.03,0,*65
1513454774.31,31323,7.31,72272.0,-15.41,-47.09,-47.09,0,*61
1513454775.52,31324,7.31,72268.0,-15.41,-47.17,-47.09,0,*69
1513454776.74,31325,7.31,72272.3,-15.41,-47.17,-47.17,0,*67
1513454778.01,31326,7.31,72270.0,-15.39,-47.03,-46.83,0,*62
1513454779.22,31327,7.31,72272.3,-15.41,-47.17,-47.09,0,*6A
1513454780.51,31328,7.31,72272.8,-15.39,-47.23,-47.23,0,*65
1513454781.76,31329,7.31,72274.8,-15.41,-47.31,-47.23,0,*68
1513454782.98,31330,7.31,72272.3,-15.41,-47.17,-47.31,0,*67
1513454784.21,31331,7.31,72268.8,-15.39,-47.09,-47.09,0,*6D
1513454785.43,31332,7.31,72270.5,-15.41,-47.17,-47.17,0,*61
1513454786.64,31333,7.31,72270.5,-15.41,-47.17,-47.17,0,*60
1513454787.9,31334,7.31,72274.0,-15.39,-47.09,-47.03,0,*62
1513454789.12,31335,7.31,72270.3,-15.41,-47.17,-47.31,0,*62
1513454790.37,31336,7.31,72272.5,-15.41,-47.31,-47.37,0,*63
1513454791.59,31337,7.31,72274.0,-15.41,-47.31,-47.17,0,*60
1513454792.8,31338,7.31,72272.5,-15.41,-47.09,-47.09,0,*6B
1513454794.04,31339,7.31,72270.5,-15.43,-47.17,-47.09,0,*67
1513454795.26,31340,7.31,72272.0,-15.41,-47.09,-47.09,0,*64
1513454796.48,31341,7.31,72270.0,-15.41,-47.31,-47.31,0,*65
1513454797.72,31342,7.31,72270.5,-15.41,-47.17,-46.89,0,*60
1513454798.94,31343,7.31,72268.3,-15.41,-47.09,-47.09,0,*67
1513454800.17,31344,7.31,72272.5,-15.43,-47.17,-47.09,0,*6D
1513454801.41,31345,7.31,72272.8,-15.43,-47.09,-47.09,0,*63
1513454802.68,31346,7.31,72268.8,-15.43,-46.97,-46.89,0,*6F
1513454803.92,31347,7.31,72272.8,-15.43,-47.17,-47.09,0,*6E
1513454805.14,31348,7.31,72268.5,-15.41,-47.31,-47.17,0,*68
1513454806.35,31349,7.31,72274.0,-15.41,-47.17,-47.31,0,*69
1513454807.57,31350,7.31,72270.5,-15.41,-47.17,-47.31,0,*61
1513454808.81,31351,7.31,72270.8,-15.43,-47.17,-47.09,0,*69
1513454810.07,31352,7.31,72272.3,-15.43,-47.09,-46.89,0,*6C
1513454811.31,31353,7.31,72272.3,-15.43,-47.09,-47.09,0,*64
1513454812.55,31354,7.31,72272.8,-15.43,-47.09,-47.17,0,*6C
1513454813.81,31355,7.31,72268.8,-15.43,-47.09,-46.89,0,*6B
1513454815.06,31356,7.31,72268.3,-15.41,-47.17,-46.89,0,*65
1513454816.27,31357,7.31,72268.8,-15.41,-47.09,-47.17,0,*6D
1513454817.51,31358,7.31,72270.3,-15.43,-47.09,-47.09,0,*6F
1513454818.75,31359,7.31,72270.3,-15.43,-46.97,-47.09,0,*68
1513454819.99,31360,7.31,72270.3,-15.43,-47.09,-47.09,0,*64
1513454821.28,31361,7.31,72268.0,-15.43,-46.89,-46.89,0,*65
1513454822.53,31362,7.31,72272.3,-15.43,-46.97,-46.83,0,*63
1513454823.78,31363,7.31,72272.0,-15.45,-46.83,-46.61,0,*6D
1513454825.03,31364,7.31,72272.0,-15.43,-46.97,-46.83,0,*65
1513454826.27,31365,7.31,72272.3,-15.43,-46.97,-47.09,0,*67
1513454827.5,31366,7.31,72268.8,-15.43,-47.17,-47.17,0,*62
1513454828.77,31367,7.31,72274.3,-15.45,-47.23,-47.23,0,*65
1513454829.98,31368,7.31,72272.0,-15.45,-47.17,-47.17,0,*6A
1513454831.25,31369,7.31,72272.0,-15.45,-47.23,-47.23,0,*6B
1513454832.46,31370,7.31,72270.0,-15.45,-47.17,-47.09,0,*6C
1513454833.75,31371,7.31,72270.8,-15.43,-46.89,-46.69,0,*6A
1513454834.99,31372,7.31,72268.3,-15.43,-46.97,-47.09,0,*61
1513454836.23,31373,7.31,72268.5,-15.43,-46.97,-47.09,0,*60
1513454837.48,31374,7.31,72272.3,-15.43,-46.97,-46.83,0,*64
1513454838.75,31375,7.31,72270.5,-15.43,-47.17,-46.89,0,*66
1513454839.96,31376,7.31,72270.0,-15.45,-47.17,-47.17,0,*65
1513454841.22,31377,7.31,72268.0,-15.43,-47.09,-46.89,0,*6B
1513454842.49,31378,7.31,72266.5,-15.43,-47.09,-46.89,0,*64
1513454843.76,31379,7.31,72272.8,-15.43,-46.89,-46.83,0,*66
1513454845.03,31380,7.31,72270.3,-15.45,-47.03,-46.89,0,*6F
1513454846.27,31381,7.31,72272.3,-15.43,-47.09,-47.09,0,*6B
1513454847.53,31382,7.31,72274.0,-15.45,-47.23,-47.37,0,*6B
1513454848.83,31383,7.31,72274.5,-15.43,-47.37,-47.37,0,*69
1513454850.07,31384,7.31,72272.3,-15.45,-47.23,-46.97,0,*66
1513454851.3,31385,7.31,72270.8,-15.45,-47.23,-47.17,0,*6E
1513454852.57,31386,7.31,72272.0,-15.43,-47.09,-46.89,0,*65
1513454853.82,31387,7.31,72272.5,-15.45,-46.97,-46.89,0,*64
1513454855.1,31388,7.31,72272.5,-15.43,-46.69,-46.69,0,*62
1513454856.38,31389,7.31,72268.5,-15.43,-46.83,-46.49,0,*65
1513454857.62,31390,7.31,72270.5,-15.45,-46.69,-46.55,0,*62
1513454858.92,31391,7.31,72270.3,-15.43,-46.49,-46.49,0,*6A
1513454860.18,31392,7.31,72270.8,-15.43,-46.83,-46.61,0,*65
1513454861.47,31393,7.31,72274.0,-15.43,-46.89,-46.61,0,*6E
1513454862.72,31394,7.31,72270.0,-15.45,-46.89,-46.75,0,*6A
1513454863.99,31395,7.31,72274.0,-15.43,-46.83,-46.69,0,*6A
1513454865.25,31396,7.31,72274.5,-15.43,-46.83,-46.61,0,*61
1513454866.55,31397,7.31,72268.0,-15.43,-46.89,-46.69,0,*62
1513454867.81,31398,7.31,72272.3,-15.45,-47.03,-46.89,0,*66
1513454869.06,31399,7.31,72272.5,-15.43,-46.83,-46.83,0,*62
1513454870.33,31400,7.31,72272.5,-15.43,-46.97,-46.69,0,*64
1513454871.6,31401,7.31,72272.8,-15.43,-46.97,-46.89,0,*6B
1513454872.86,31402,7.31,72274.3,-15.43,-46.83,-46.61,0,*6B
1513454874.16,31403,7.31,72266.3,-15.43,-46.61,-46.49,0,*6C
1513454875.42,31404,7.31,72268.5,-15.43,-46.83,-46.61,0,*6D
1513454876.7,31405,7.31,72274.5,-15.41,-46.89,-46.69,0,*6C
1513454877.94,31406,7.31,72272.5,-15.41,-46.83,-46.69,0,*65
1513454879.22,31407,7.31,72270.8,-15.41,-46.69,-46.49,0,*62
1513454880.48,31408,7.31,72272.5,-15.43,-46.97,-46.89,0,*62
1513454881.75,31409,7.31,72274.5,-15.43,-46.89,-47.09,0,*65
1513454882.98,31410,7.31,72272.0,-15.41,-47.09,-46.83,0,*65
1513454884.2,31411,7.31,72272.0,-15.41,-46.97,-47.09,0,*61
1513454885.47,31412,7.31,72272.5,-15.41,-46.89,-46.69,0,*6A
1513454886.72,31413,7.31,72274.0,-15.41,-46.97,-46.89,0,*6A
1513454887.93,31414,7.31,72270.3,-15.41,-47.17,-47.17,0,*62
1513454889.15,31415,7.31,72268.8,-15.41,-47.09,-47.17,0,*6C
1513454890.38,31416,7.31,72268.0,-15.41,-46.97,-46.83,0,*65
1513454891.65,31417,7.31,72270.5,-15.43,-46.97,-46.89,0,*6C
1513454892.89,31418,7.31,72272.5,-15.43,-47.09,-46.83,0,*6F
1513454894.14,31419,7.31,72270.5,-15.43,-47.09,-46.83,0,*6E
1513454895.41,31420,7.31,72272.0,-15.41,-46.89,-46.69,0,*6B
1513454896.64,31421,7.31,72270.0,-15.41,-46.97,-46.83,0,*61
1513454897.91,31422,7.31,72270.3,-15.41,-46.69,-46.69,0,*67
1513454899.15,31423,7.31,72272.3,-15.39,-46.75,-46.55,0,*6B
1513454900.42,31424,7.31,72272.8,-15.41,-46.69,-46.49,0,*63